Weather History for KRBO - January, 2014

Change the Weather History Date:

Monday, January 13, 2014

  Actual Average (KCRP) Record (KCRP)
Temperature  
Mean Temperature 62 °F 57 °F  
Max Temperature 76 °F 67 °F 85 °F (1950)
Min Temperature 47 °F 47 °F 18 °F (1975)
Degree Days  
Heating Degree Days 4 9  
Month to date heating degree days 117  
Since 1 July heating degree days 468  
Cooling Degree Days 0 1  
Month to date cooling degree days 13  
Year to date cooling degree days 13  
Growing Degree Days 12 (Base 50)    
Moisture  
Dew Point 45 °F    
Average Humidity 57    
Maximum Humidity 97    
Minimum Humidity 16    
Precipitation  
Precipitation 0.00 in 0.05 in 1.25 in (1967)
Month to date precipitation 0.67  
Year to date precipitation 0.67  
Snow  
Snow 0.00 in - - ()
Month to date snowfall  
Since 1 July snowfall  
Snow Depth -    
Sea Level Pressure  
Sea Level Pressure 30.01 in    
Wind  
Wind Speed 11 mph (NW)    
Max Wind Speed 24 mph    
Max Gust Speed 33 mph    
Visibility 8 miles    
Events Fog    
T = Trace of Precipitation, MM = Missing Value Source: NWS Daily Summary

Daily Weather History Graph

Daily Weather History Graph

Search for Another Location

Airport or City:

Trip Planner

Search our weather history database for the weather conditions in past years. The results will help you decide how hot, cold, wet, or windy it might be!

Date:

Astronomy

Jan. 13, 2014 Rise Set
Actual Time 7:23 AM CST 5:56 PM CST
Civil Twilight 6:57 AM CST 6:21 PM CST
Nautical Twilight 6:28 AM CST 6:50 PM CST
Astronomical Twilight 6:00 AM CST 7:18 PM CST
Moon 4:10 PM CST (1/13) 5:14 AM CST (1/13)
Length of Visible Light 11h 23m
Length of Day
10h 33m
Waxing Gibbous, 95% of the Moon is Illuminated
Jan 13
Waxing Gibbous
Jan 15
Full
Jan 23
Last Quarter
Jan 30
New
Feb 6
First Quarter

Hourly Weather History & Observations

Time (CST) Temp. Dew Point Humidity Pressure Visibility Wind Dir Wind Speed Gust Speed Precip Events Conditions
12:15 AM 66.2 °F 63.9 °F 92% 29.91 in 10.0 mi South 6.9 mph - N/A   Scattered Clouds
12:35 AM 66.2 °F 63.9 °F 92% 29.90 in 7.0 mi South 8.1 mph - N/A   Clear
12:55 AM 66.4 °F 64.4 °F 93% 29.90 in 7.0 mi South 6.9 mph - N/A   Scattered Clouds
1:15 AM 65.3 °F 63.5 °F 94% 29.90 in 7.0 mi SSW 5.8 mph - N/A   Scattered Clouds
1:35 AM 63.9 °F 62.4 °F 95% 29.89 in 5.0 mi SSW 5.8 mph - N/A   Scattered Clouds
1:55 AM 63.7 °F 62.2 °F 95% 29.89 in 5.0 mi SSW 5.8 mph - N/A   Scattered Clouds
2:15 AM 62.8 °F 61.5 °F 96% 29.88 in 4.0 mi South 6.9 mph - N/A   Clear
2:35 AM 64.2 °F 63.1 °F 96% 29.88 in 5.0 mi South 6.9 mph - N/A   Scattered Clouds
2:55 AM 64.0 °F 62.8 °F 96% 29.88 in 5.0 mi SSW 6.9 mph - N/A   Clear
3:15 AM 63.7 °F 62.6 °F 96% 29.87 in 4.0 mi South 8.1 mph - N/A   Clear
3:35 AM 63.9 °F 62.8 °F 96% 29.88 in 4.0 mi SSW 8.1 mph - N/A   Clear
3:55 AM 63.0 °F 61.9 °F 96% 29.87 in 4.0 mi South 9.2 mph - N/A   Clear
4:15 AM 64.6 °F 63.5 °F 96% 29.87 in 5.0 mi SSW 10.4 mph - N/A   Clear
4:35 AM 64.6 °F 63.5 °F 96% 29.87 in 5.0 mi SSW 9.2 mph - N/A   Clear
4:55 AM 63.3 °F 62.1 °F 96% 29.88 in 5.0 mi SW 6.9 mph - N/A   Clear
5:15 AM 62.8 °F 61.7 °F 96% 29.89 in 4.0 mi SW 5.8 mph - N/A   Clear
5:35 AM 61.7 °F 60.6 °F 96% 29.89 in 2.0 mi WSW 5.8 mph - N/A   Clear
5:55 AM 59.7 °F 58.6 °F 96% 29.89 in 0.2 mi WSW 5.8 mph - N/A Fog Fog
6:15 AM 60.1 °F 59.2 °F 97% 29.90 in 0.2 mi West 6.9 mph - N/A Fog Fog
6:35 AM 59.2 °F 58.3 °F 97% 29.90 in 0.2 mi West 9.2 mph - N/A Fog Fog
6:55 AM 61.9 °F 61.0 °F 97% 29.91 in 2.5 mi WNW 15.0 mph - N/A   Mostly Cloudy
7:15 AM 62.6 °F 61.9 °F 97% 29.93 in 7.0 mi NW 17.3 mph - N/A   Clear
7:35 AM 61.9 °F 61.0 °F 97% 29.94 in 1.8 mi NW 12.7 mph - N/A   Scattered Clouds
7:55 AM 62.6 °F 61.7 °F 97% 29.95 in 4.0 mi NNW 10.4 mph - N/A   Scattered Clouds
8:15 AM 63.1 °F 62.2 °F 97% 29.96 in 5.0 mi NW 10.4 mph - N/A   Clear
8:35 AM 63.9 °F 63.0 °F 97% 29.97 in 7.0 mi NW 8.1 mph - N/A   Clear
8:55 AM 64.6 °F 63.0 °F 94% 29.99 in 10.0 mi NW 10.4 mph - N/A   Clear
9:15 AM 66.2 °F 61.5 °F 85% 29.99 in 10.0 mi NW 15.0 mph 20.7 mph N/A   Clear
9:35 AM 68.4 °F 60.6 °F 76% 30.00 in 10.0 mi NW 19.6 mph - N/A   Clear
9:55 AM 69.8 °F 57.6 °F 65% 30.02 in 10.0 mi NW 20.7 mph 28.8 mph N/A   Clear
10:15 AM 70.9 °F 54.3 °F 56% 30.02 in 10.0 mi NNW 19.6 mph 27.6 mph N/A   Clear
10:35 AM 70.7 °F 51.1 °F 50% 30.04 in 10.0 mi NNW 23.0 mph 27.6 mph N/A   Clear
10:55 AM 71.2 °F 50.5 °F 48% 30.04 in 10.0 mi NNW 18.4 mph - N/A   Clear
11:15 AM 72.0 °F 48.6 °F 43% 30.04 in 10.0 mi NW 20.7 mph 25.3 mph N/A   Clear
11:35 AM 73.0 °F 45.9 °F 38% 30.04 in 10.0 mi NNW 21.9 mph 27.6 mph N/A   Clear
11:55 AM 73.8 °F 45.3 °F 36% 30.04 in 10.0 mi NNW 21.9 mph 26.5 mph N/A   Clear
12:15 PM 74.7 °F 44.1 °F 33% 30.03 in 10.0 mi NNW 21.9 mph - N/A   Clear
12:35 PM 74.7 °F 41.2 °F 30% 30.03 in 10.0 mi NNW 24.2 mph 28.8 mph N/A   Clear
12:55 PM 75.0 °F 39.0 °F 27% 30.02 in 10.0 mi NNW 21.9 mph 28.8 mph N/A   Clear
1:15 PM 74.8 °F 37.2 °F 26% 30.02 in 10.0 mi NNW 23.0 mph 28.8 mph N/A   Clear
1:35 PM 76.1 °F 33.8 °F 21% 30.02 in 10.0 mi NNW 23.0 mph 29.9 mph N/A   Clear
1:55 PM 75.9 °F 32.4 °F 20% 30.02 in 10.0 mi NNW 23.0 mph 32.2 mph N/A   Clear
2:15 PM 75.2 °F 32.0 °F 21% 30.03 in 10.0 mi NNW 24.2 mph 33.4 mph N/A   Clear
2:35 PM 75.2 °F 30.6 °F 19% 30.03 in 10.0 mi NNW 24.2 mph 32.2 mph N/A   Clear
2:55 PM 75.2 °F 29.7 °F 19% 30.04 in 10.0 mi NW 21.9 mph 29.9 mph N/A   Clear
3:15 PM 75.4 °F 30.0 °F 19% 30.05 in 10.0 mi NNW 20.7 mph 25.3 mph N/A   Clear
3:35 PM 74.8 °F 27.5 °F 17% 30.05 in 10.0 mi NNW 19.6 mph 28.8 mph N/A   Clear
3:55 PM 74.7 °F 25.0 °F 16% 30.05 in 10.0 mi NNW 24.2 mph 28.8 mph N/A   Clear
4:15 PM 74.3 °F 25.7 °F 16% 30.06 in 10.0 mi NNW 15.0 mph 28.8 mph N/A   Clear
4:35 PM 73.9 °F 25.0 °F 16% 30.07 in 10.0 mi NNW 18.4 mph 25.3 mph N/A   Clear
4:55 PM 73.4 °F 25.2 °F 17% 30.07 in 10.0 mi NNW 18.4 mph 24.2 mph N/A   Clear
5:15 PM 72.3 °F 24.8 °F 17% 30.08 in 10.0 mi NNW 16.1 mph - N/A   Clear
5:35 PM 70.9 °F 25.5 °F 18% 30.08 in 10.0 mi NNW 11.5 mph - N/A   Clear
5:55 PM 68.2 °F 27.1 °F 21% 30.09 in 10.0 mi North 6.9 mph - N/A   Clear
6:15 PM 64.8 °F 28.0 °F 25% 30.10 in 10.0 mi North 8.1 mph - N/A   Clear
6:35 PM 62.4 °F 28.0 °F 27% 30.11 in 10.0 mi North 8.1 mph - N/A   Clear
6:55 PM 61.5 °F 28.2 °F 28% 30.12 in 10.0 mi North 6.9 mph - N/A   Clear
7:15 PM 59.5 °F 28.4 °F 31% 30.12 in 10.0 mi NNE 5.8 mph - N/A   Clear
7:35 PM 60.3 °F 28.2 °F 30% 30.13 in 10.0 mi NNE 4.6 mph - N/A   Clear
7:55 PM 61.0 °F 27.9 °F 28% 30.13 in 10.0 mi NE 5.8 mph - N/A   Clear
8:15 PM 61.0 °F 28.0 °F 29% 30.14 in 10.0 mi NE 4.6 mph - N/A   Clear
8:35 PM 57.7 °F 28.4 °F 33% 30.15 in 10.0 mi Calm Calm - N/A   Clear
8:55 PM 58.6 °F 29.1 °F 33% 30.15 in 10.0 mi NE 3.5 mph - N/A   Clear
9:15 PM 54.1 °F 31.3 °F 42% 30.15 in 10.0 mi ENE 5.8 mph - N/A   Clear
9:35 PM 58.1 °F 29.1 °F 33% 30.16 in 10.0 mi NE 4.6 mph - N/A   Clear
9:55 PM 57.6 °F 29.5 °F 34% 30.16 in 10.0 mi NNE 3.5 mph - N/A   Clear
10:15 PM 55.6 °F 29.8 °F 37% 30.16 in 10.0 mi NNE 4.6 mph - N/A   Clear
10:35 PM 54.0 °F 30.4 °F 41% 30.17 in 10.0 mi NNE 3.5 mph - N/A   Clear
10:55 PM 51.8 °F 31.6 °F 46% 30.17 in 10.0 mi NNE 4.6 mph - N/A   Clear
11:15 PM 50.0 °F 32.0 °F 50% 30.17 in 10.0 mi NNE 4.6 mph - N/A   Clear
11:35 PM 47.3 °F 32.4 °F 56% 30.16 in 10.0 mi Calm Calm - N/A   Clear
11:55 PM 48.6 °F 31.5 °F 52% 30.15 in 10.0 mi ENE 4.6 mph - N/A   Clear